Location: Winthrop
(48.4780°N, 120.1850°W)
Time: 04:58:02
(UTC-08:00)

Vanguard 1 Rocket - Pass Details

Date: 01 December 2023
Orbit: 654 x 4218 km, 34.3° (Epoch: 24 February)

Event Time Altitude Azimuth Distance (km) Brightness Sun altitude
Rises 10:54:49 0° 266° (W) 5,242 11.2 18.6°
Reaches altitude 10° 11:00:22 10° 249° (WSW) 3,529 10.6 18.8°
Maximum altitude 11:04:57 16° 215° (SW) 2,543 10.5 19.0°
Drops below altitude 10° 11:08:29 10° 178° (S) 2,568 11.9 19.1°
Sets 11:11:35 0° 155° (SSE) 3,220 11.6 19.2°
